Theta_e
306 305 305 305 305 304 303 303 303 304 304 304 304 304 304 296 311 312 310 311 312 311 312 310 310 314 316 324 315 314 319 323 323 323 324 320 324 320 319 327 332 334 333 333 331
305 304 304 305 305 305 304 304 304 303 303 303 303 303 302 296 307 310 309 309 311 313 315 314 311 313 316 326 318 315 319 321 319 320 323 318 320 317 324 330 334 336 329 327 331
304 304 303 304 305 304 305 304 304 304 304 303 302 303 295 297 305 307 305 305 305 311 316 315 315 313 319 324 321 313 320 320 320 316 315 317 317 316 323 326 329 333 329 326 331
304 304 303 303 303 304 304 304 304 304 304 303 302 303 296 297 296 302 301 302 303 307 311 314 312 314 319 325 324 318 315 319 319 319 316 318 317 318 322 322 318 318 326 325 330
303 303 303 303 303 303 304 304 304 304 304 303 302 302 297 293 295 299 299 300 300 304 305 309 311 311 317 320 324 324 321 316 316 319 316 318 317 317 316 315 325 320 326 324 329
300 302 301 302 302 303 304 304 304 304 303 302 302 302 298 292 297 299 301 299 299 301 303 308 309 310 312 311 320 321 325 322 318 320 321 319 317 317 317 320 334 332 331 324 324
300 299 299 300 302 302 303 303 303 302 300 303 303 302 299 294 299 300 301 302 301 302 301 303 303 308 310 310 307 318 325 325 325 322 321 319 320 318 315 322 332 334 332 330 325
301 301 301 302 300 302 302 300 299 294 301 304 303 301 295 297 299 300 299 299 299 303 302 303 306 308 312 309 312 319 322 325 321 324 323 319 327 319 315 314 325 331 332 332 331
302 302 302 301 302 302 300 295 293 298 300 303 301 299 296 298 301 299 298 298 299 300 301 302 305 309 310 312 314 319 319 321 321 323 325 321 326 322 315 313 314 321 329 331 332
302 302 300 300 302 302 295 292 296 300 301 301 300 296 298 298 298 297 298 299 298 300 301 304 306 310 309 310 312 317 320 317 320 320 322 323 325 322 318 313 313 313 313 323 331
302 301 301 299 300 297 295 292 293 292 294 294 295 297 297 296 297 298 299 298 298 300 300 301 307 307 309 310 311 310 310 311 315 318 323 323 323 324 322 315 313 311 312 312 325
300 299 301 302 299 296 294 295 296 295 296 295 295 295 296 297 297 297 299 297 298 298 301 300 300 303 306 308 312 311 312 311 310 317 321 321 322 322 322 322 316 317 314 314 312
302 301 299 299 298 295 296 296 297 297 294 294 295 297 297 298 299 299 298 297 296 297 301 298 297 300 303 306 309 313 313 312 311 308 311 319 320 321 320 321 316 315 315 315 310
302 302 300 299 297 295 296 296 297 296 282 290 297 299 298 298 297 299 299 298 298 297 295 296 296 299 299 304 307 310 311 311 311 311 315 317 318 318 321 321 322 319 317 316 315
303 302 300 297 294 295 295 296 297 293 284 291 294 297 295 297 297 297 299 297 299 298 298 295 301 303 302 300 304 307 309 311 311 311 312 311 321 315 318 321 320 321 321 318 318
303 301 299 296 297 296 296 296 295 286 285 288 292 295 295 295 297 298 298 299 298 299 298 298 300 303 303 303 304 304 307 310 311 311 314 312 316 313 318 318 319 318 320 321 316
302 300 297 297 296 295 295 292 286 285 286 289 289 294 295 296 297 297 298 296 299 296 290 296 298 298 302 303 302 305 305 312 313 313 311 308 313 314 312 314 317 318 319 319 311
301 298 297 296 295 295 294 285 283 278 280 292 295 295 292 293 296 295 296 294 294 296 296 295 295 297 299 300 303 306 304 310 312 310 309 309 313 311 310 311 307 307 308 310 303
299 297 295 295 295 295 286 281 285 283 292 295 294 288 283 290 292 293 291 291 295 300 301 295 297 299 299 301 300 301 306 304 309 306 306 306 307 306 306 308 308 309 307 304 304
297 296 296 297 296 293 284 288 283 291 294 296 294 291 283 281 289 287 287 289 295 299 300 300 300 298 301 301 301 302 304 309 309 310 308 309 307 306 308 309 309 309 308 306 306
297 289 296 297 294 284 282 280 283 290 293 296 295 293 289 287 285 282 285 288 297 298 299 300 302 300 299 298 303 303 303 305 308 307 311 309 309 304 305 306 308 307 306 306 305
293 286 294 296 286 281 280 281 292 293 293 293 295 296 295 292 285 288 286 291 298 298 297 299 300 301 297 298 304 305 304 302 304 308 308 306 306 302 302 302 306 305 303 301 300
284 283 294 293 282 279 287 287 292 293 294 292 294 295 295 295 292 291 292 295 297 296 292 293 293 295 294 301 304 305 304 304 305 305 308 310 304 303 304 304 303 302 300 298 296
285 286 283 282 276 283 284 280 287 292 293 294 292 292 295 295 295 289 294 294 295 295 298 296 296 298 295 292 299 302 301 305 307 309 306 308 309 304 303 303 301 299 297 296 295
288 282 279 281 282 282 285 287 291 291 289 293 294 293 291 288 293 294 294 294 294 295 295 292 293 290 296 297 297 299 302 303 304 304 305 306 306 305 303 302 301 298 295 295 294
287 285 287 283 286 288 288 285 291 291 291 289 292 294 292 290 292 293 293 293 294 294 294 292 291 293 292 298 301 303 299 301 302 303 302 301 301 302 299 298 298 297 296 295 294
290 288 287 284 286 284 281 285 289 292 291 291 293 293 294 293 292 291 291 292 293 294 295 295 295 292 295 295 296 296 298 296 297 300 300 301 303 301 301 301 299 296 296 295 293
Wind_Speed
13 14 14 14 15 15 17 18 20 21 22 23 23 23 24 22 12 14 13 13 14 19 17 15 8 6 3 2 3 3 3 4 6 6 5 2 5 3 5 3 1 1 2 0 27
14 15 15 14 13 14 15 16 18 20 21 23 24 24 23 17 7 11 14 18 15 17 12 10 5 9 2 2 2 4 4 8 6 6 4 1 2 1 4 2 2 1 6 18 29
14 16 17 16 14 14 15 15 17 18 19 21 23 24 22 11 2 3 16 17 18 16 10 6 7 3 1 1 3 5 6 4 4 4 4 3 2 2 2 3 3 5 6 10 21
12 14 15 16 16 16 15 16 16 17 19 20 22 23 19 6 2 6 16 17 16 14 13 7 4 1 2 4 4 4 7 5 3 4 2 3 1 3 4 4 1 7 11 11 14
15 16 16 17 17 18 16 15 16 17 18 19 19 19 11 6 2 11 15 14 14 15 13 5 5 5 3 3 2 3 4 7 5 6 4 0 4 3 5 6 4 5 11 14 11
15 14 17 18 18 18 17 17 18 19 18 17 15 11 4 3 4 12 14 15 14 13 9 8 4 3 4 4 3 5 6 3 6 6 3 5 4 4 2 1 3 6 9 8 12
14 16 19 21 21 18 19 20 22 21 19 13 8 8 2 5 8 11 14 11 14 12 5 6 9 6 6 5 6 4 5 4 6 6 5 4 7 7 7 2 3 6 6 6 7
12 11 14 18 21 21 21 21 21 19 11 6 3 5 4 4 6 9 15 11 16 9 7 7 4 2 3 6 5 4 2 5 4 8 4 7 18 10 9 8 8 8 7 7 10
12 12 13 14 16 19 22 24 17 8 5 2 2 3 6 6 5 10 15 9 14 11 10 4 2 2 2 1 4 4 3 6 5 9 7 9 3 9 8 8 9 8 8 9 8
13 14 16 16 17 18 22 17 5 3 4 2 3 2 3 4 10 15 8 4 3 8 6 3 2 2 1 3 6 3 5 4 6 5 7 7 13 8 6 9 11 10 9 9 9
11 12 13 16 17 20 23 5 9 5 8 2 6 4 5 12 3 5 6 7 3 4 2 5 1 6 6 8 6 7 6 8 5 5 4 16 14 17 9 7 7 9 9 9 11
12 12 12 13 13 13 17 7 3 3 7 5 5 5 10 4 3 5 3 4 4 2 3 4 4 7 6 9 9 14 16 9 9 6 4 4 13 15 14 14 12 15 13 10 6
13 12 12 12 9 9 14 7 3 1 2 6 4 3 5 1 3 4 1 1 2 0 2 5 5 11 4 8 12 11 14 11 7 9 6 3 9 10 9 10 8 13 8 12 10
12 10 9 9 3 5 4 8 4 4 5 5 3 2 3 3 3 4 2 2 2 2 2 5 7 9 10 8 4 12 4 10 12 5 4 1 9 17 19 16 18 15 12 10 12
8 7 6 4 2 3 4 4 4 2 4 7 7 4 8 1 4 1 0 3 4 4 4 7 3 3 8 8 7 8 5 6 11 15 6 6 6 6 9 21 24 17 15 12 14
6 5 2 1 3 2 4 3 2 6 4 7 5 6 6 2 2 5 2 2 1 1 4 10 1 3 2 2 4 6 6 10 3 8 10 18 9 6 8 18 12 14 19 18 11
6 6 2 1 1 3 3 3 5 5 4 8 3 5 4 4 5 2 3 2 2 2 3 4 8 6 4 5 6 7 6 4 6 7 12 16 7 22 4 4 5 14 15 16 11
9 7 5 3 2 1 2 5 6 3 5 4 4 4 2 5 3 5 4 3 3 1 1 2 7 9 8 17 5 9 7 6 8 7 16 5 11 12 6 7 2 1 3 4 7
11 7 4 4 3 2 5 4 7 6 3 4 6 5 6 4 2 5 1 3 3 2 4 3 7 3 4 5 13 5 9 15 9 3 2 6 25 8 1 2 2 5 2 7 9
10 4 3 3 3 3 4 4 4 3 1 2 0 1 2 5 5 5 1 4 3 4 1 4 5 5 3 4 9 11 3 6 5 6 5 5 17 15 5 5 3 3 3 5 5
5 3 1 1 2 5 2 6 5 6 4 4 3 3 5 3 3 3 4 6 2 4 4 6 5 3 3 5 8 7 11 8 4 7 5 2 5 4 11 7 9 7 6 8 8
5 2 1 2 3 2 1 4 4 3 2 4 3 4 4 3 3 3 5 6 1 3 6 2 4 4 9 5 3 8 6 9 8 6 9 6 9 2 6 5 6 6 7 6 9
3 2 1 1 1 2 2 4 3 3 4 4 4 6 3 3 2 5 4 4 2 2 2 4 4 4 9 1 2 4 6 12 13 11 19 6 8 7 1 7 7 9 8 9 10
3 1 3 4 1 5 2 4 4 3 4 4 4 2 2 4 6 5 3 4 1 3 7 1 4 5 7 7 2 4 5 2 7 11 17 12 7 6 7 9 10 9 7 7 7
3 3 3 2 2 2 2 2 2 3 3 4 3 7 6 3 3 5 5 3 4 3 2 4 5 4 10 14 14 15 14 7 7 9 5 3 19 13 5 7 7 12 12 11 10
4 4 2 2 3 3 4 4 6 4 5 5 5 4 7 7 9 10 10 5 5 2 2 2 4 2 8 9 12 12 10 12 13 12 10 11 12 5 5 6 3 11 13 12 11
4 3 3 4 3 3 5 6 5 3 6 5 8 3 6 14 12 14 11 9 8 4 7 3 3 3 5 7 7 7 13 10 4 6 6 8 15 11 6 13 12 11 11 12 10
Wind_Direction
25 23 22 19 19 17 14 8 4 2 358 355 355 354 354 357 29 53 37 357 340 338 330 322 307 328 352 292 131 124 89 206 208 158 245 330 42 2 295 123 79 247 153 300 157
26 21 19 16 14 12 12 6 1 357 355 350 349 348 350 356 19 50 3 359 356 350 341 354 342 350 2 271 191 135 167 215 206 195 210 228 148 330 9 356 253 78 38 134 151
25 21 16 16 9 5 3 359 356 353 350 347 344 343 349 353 46 21 349 351 357 359 348 324 324 323 250 196 199 169 194 221 237 212 167 180 261 139 129 231 238 212 153 162 155
21 19 18 14 7 358 354 353 350 347 346 343 342 341 347 9 27 347 341 340 347 357 11 5 4 335 237 221 226 188 218 184 224 221 176 208 170 300 153 210 284 262 165 160 173
7 5 11 10 4 357 352 347 343 342 341 337 338 341 358 13 319 340 338 341 343 3 18 8 37 2 220 266 285 219 232 198 200 191 228 263 239 226 260 251 326 185 167 176 184
352 352 358 3 1 356 351 343 338 335 334 330 331 337 16 355 351 346 360 355 355 10 0 22 42 294 284 287 231 327 257 226 209 204 214 186 237 148 263 199 46 160 183 188 186
350 349 350 351 352 351 345 338 333 331 330 333 340 341 55 238 2 29 19 20 7 1 351 349 341 39 340 301 341 290 278 245 215 188 219 156 254 210 216 173 177 186 185 189 203
359 357 349 345 344 344 339 337 329 329 339 359 335 341 259 344 356 20 16 359 359 12 344 317 350 215 181 313 313 225 224 238 201 165 245 174 253 218 211 174 212 211 205 205 206
342 343 347 348 346 339 337 336 334 351 354 338 340 65 292 352 35 350 338 328 337 343 336 294 319 242 186 102 300 241 243 229 323 209 185 195 262 223 197 188 204 215 212 213 217
339 341 344 346 347 347 346 339 3 19 24 27 60 21 350 322 322 321 342 350 344 341 356 37 189 246 180 154 219 249 239 277 229 206 212 228 240 268 232 184 201 199 211 211 212
338 343 349 351 349 355 358 19 13 355 35 296 287 263 288 319 330 334 349 335 1 47 16 348 10 223 260 227 252 279 306 317 334 272 239 229 232 239 231 228 235 203 207 214 214
340 348 350 350 350 5 23 66 83 266 314 310 280 266 277 286 317 331 355 45 42 349 352 7 270 242 284 290 237 248 260 281 285 252 242 265 249 242 226 227 221 219 221 219 221
312 319 336 340 345 16 56 45 359 351 288 303 266 278 292 141 318 296 68 80 72 165 225 205 252 349 300 270 260 249 248 249 261 332 268 357 265 239 237 227 220 233 217 214 214
295 297 317 333 334 14 51 9 10 24 59 302 352 336 350 320 298 257 217 145 37 306 260 245 259 244 261 265 279 264 257 235 232 269 251 167 269 220 223 229 222 218 215 200 213
288 271 299 342 2 44 353 0 6 19 23 305 307 305 332 61 306 350 199 83 212 221 118 246 274 253 244 239 218 258 277 295 217 228 329 256 263 245 188 228 225 214 213 210 214
255 232 266 22 40 48 355 347 3 41 278 330 322 347 359 352 278 309 339 76 228 250 221 246 338 254 231 307 267 251 317 278 290 228 239 228 221 211 199 226 219 208 213 214 203
195 181 170 4 48 347 336 25 33 106 326 303 318 351 340 300 318 351 313 308 230 357 310 311 235 220 167 256 248 200 172 208 225 196 228 192 210 242 277 287 227 215 206 207 190
168 152 110 72 14 353 21 51 70 241 237 315 314 321 318 356 329 337 302 308 307 174 256 217 314 170 192 206 198 205 194 239 191 202 245 91 225 235 253 201 255 307 276 137 140
153 126 83 56 23 326 68 55 202 203 220 321 330 34 318 339 357 0 256 236 256 239 241 204 265 264 223 171 191 195 232 248 278 279 314 184 238 310 118 28 16 4 81 165 145
145 110 57 48 36 31 71 242 202 216 262 104 216 136 253 283 6 31 323 230 265 213 235 275 284 238 216 172 217 224 238 217 206 230 240 227 230 230 183 199 235 234 132 87 96
123 64 92 186 10 52 162 230 248 227 216 175 217 272 231 276 189 270 251 288 240 316 287 275 261 289 16 210 185 208 241 247 313 216 243 282 249 245 202 210 207 182 143 124 105
116 48 12 198 51 107 191 207 245 259 165 247 215 227 223 201 267 253 231 220 102 309 315 289 293 263 235 254 235 219 236 228 230 253 238 238 258 16 281 295 132 119 108 93 107
108 164 187 157 142 258 282 281 259 236 212 184 229 208 168 238 286 217 248 254 186 350 235 313 299 324 330 50 183 222 214 234 243 248 252 249 255 355 143 114 119 121 115 115 110
87 45 332 58 31 135 173 263 289 233 257 201 224 110 182 236 213 269 259 294 257 223 249 53 257 220 233 232 213 255 239 269 262 231 250 225 291 306 289 153 137 121 111 105 104
57 240 196 240 275 108 118 187 255 282 240 229 268 207 177 230 262 231 243 261 273 308 310 145 260 226 263 258 256 264 259 243 240 263 249 251 221 257 196 279 163 136 127 120 113
139 140 146 131 163 167 209 242 210 265 181 256 221 216 185 202 201 270 284 267 238 236 340 294 276 290 287 262 221 254 246 236 238 237 249 262 281 148 134 108 164 144 139 140 140
144 124 120 177 163 146 220 219 214 175 254 236 217 225 225 237 236 243 248 240 242 218 280 235 277 333 264 337 334 287 244 209 210 204 190 214 224 161 151 165 181 161 154 153 147